Location: Waco, TX
(31.5480°N, 97.1670°W)
Time: 19:58:08
(UTC-06:00)

ISS - Pass Details

Date: 18 November 2017
Orbit: 402 x 407 km, 51.6° (Epoch: 23 November)

Event Time Altitude Azimuth Distance (km) Brightness Sun altitude
Rises 04:35:57 0° 333° (NNW) 2,313 - -30.4°
Reaches altitude 10° 04:38:51 10° 1° (N) 1,452 - -29.8°
Maximum altitude 04:40:35 14° 33° (NNE) 1,251 - -29.4°
Exits shadow 04:41:56 11° 60° (ENE) 1,373 -0.5 -29.2°
Drops below altitude 10° 04:42:19 10° 66° (ENE) 1,449 -0.3 -29.1°
Sets 04:45:11 0° 94° (E) 2,305 1.3 -28.5°
